sat.trackr.live / text

‹ back to catalog

STARLINK-36452

NORAD 67405 · 2026-005B

PAYLOAD ACTIVE UNKNOWN

§ Identity

Operator
Country
US
Launch date
2026-01-12
Launch site
AFETR
Launch vehicle
Mass (kg)
RCS (m²)

Purposes: comms

External: N2YO · Heavens-Above · Gunter

§ Orbital elements

Epoch: 2026-09-19T13:55:25.644288Z

Period
94.27 min
Inclination
42.9991°
Eccentricity
0.0000854
Mean motion
15.27589785 rev/d
Perigee alt
482.4 km
Apogee alt
483.6 km
Semi-major
6,861.2 km
B*
4.4564e-4
RAAN
222.6337°
Arg perigee
348.8017°
Mean anomaly
11.2816°
Rev number
3,835

§ Raw data

STARLINK-364521 67405U 26005B   26262.58015792  .00012025  00000+0  44564-3 0  99952 67405  42.9991 222.6337 0000854 348.8017  11.2816 15.27589785 38356

JSON: /api/v1/satellites/67405 · /tle

For live sub-satellite position, see the globe view (requires WebGL).

§ Visibility from observer

Set your observer location to see the next 7 days of passes ≥ 10°. The values pass through the URL so the page stays shareable.

No JS? Fill the form by hand. The geolocation button needs JavaScript.